This is the latest recevied weather packets stored in our database for station/object KQ7A. If no packets are shown the sender has not sent any weather packets the latest 10 day(s).
| Time | Temp. | Humidity | Pressure | Rain* | Wind** | Luminosity | Snow |
|---|---|---|---|---|---|---|---|
| 1777739300 | 13.89° C | 56% | 1017.6 hPa | 0 mm | - | 242 W/m² | - |
| 1777738997 | 14.44° C | 54% | 1017.6 hPa | 0 mm | - | 246 W/m² | - |
| 1777738694 | 13.33° C | 52% | 1017.5 hPa | 0 mm | - | 258 W/m² | - |
| 1777738389 | 13.33° C | 54% | 1017.7 hPa | 0 mm | - | 251 W/m² | - |
| 1777738087 | 13.33° C | 55% | 1017.5 hPa | 0 mm | - | 269 W/m² | - |
| 1777737781 | 12.78° C | 56% | 1017.6 hPa | 0 mm | - | 239 W/m² | - |
| 1777737479 | 12.78° C | 57% | 1017.7 hPa | 0 mm | - | 292 W/m² | - |
| 1777737176 | 12.78° C | 57% | 1017.5 hPa | 0 mm | - | 314 W/m² | - |
| 1777736871 | 12.22° C | 59% | 1017.5 hPa | 0 mm | - | 336 W/m² | - |
| 1777736258 | 11.67° C | 63% | 1017.5 hPa | 0 mm | - | 201 W/m² | - |
| 1777735955 | 10.56° C | 65% | 1017.6 hPa | 0 mm | - | 172 W/m² | - |
| 1777735653 | 10.56° C | 68% | 1017.8 hPa | 0 mm | - | 148 W/m² | - |
| 1777735350 | 11.11° C | 61% | 1017.5 hPa | 0 mm | - | 130 W/m² | - |
| 1777735047 | 10.56° C | 64% | 1017.6 hPa | 0 mm | - | 125 W/m² | - |
| 1777734744 | 10.56° C | 63% | 1017.5 hPa | 0 mm | - | 122 W/m² | - |
| 1777734442 | 10° C | 63% | 1017.6 hPa | 0 mm | - | 119 W/m² | - |
| 1777734138 | 10° C | 63% | 1017.6 hPa | 0 mm | - | 115 W/m² | - |
| 1777733835 | 10° C | 64% | 1017.5 hPa | 0 mm | - | 110 W/m² | - |
| 1777733531 | 10° C | 64% | 1017.5 hPa | 0 mm | - | 112 W/m² | - |
| 1777733228 | 10° C | 62% | 1017.6 hPa | 0 mm | - | 113 W/m² | - |
| 1777732925 | 10° C | 57% | 1017.6 hPa | 0 mm | - | 109 W/m² | - |
| 1777732621 | 9.44° C | 60% | 1017.3 hPa | 0 mm | - | 102 W/m² | - |
| 1777732319 | 8.89° C | 60% | 1017.6 hPa | 0 mm | - | 96 W/m² | - |
| 1777732015 | 8.89° C | 61% | 1017.4 hPa | 0 mm | - | 89 W/m² | - |
| 1777731712 | 8.33° C | 62% | 1017.4 hPa | 0 mm | - | 90 W/m² | - |
* Rain latest hour (hover to see other rain measurements)
** Current wind speed in m/s (hover to see current wind gust speed)